HTH weather

Hawthorne Industrial Airport
Hawthorne, Nevada, United States

Public forecast

Using degrees Fahrenheit for public forecast. Weather courtesy of forecast.io.

METAR (pilot weather report)

Closest report is Fallon Naval Air Station, 52.5 nm (97.2 km) N. Retrieved 2019/07/20 07:56 UTC (43 minutes ago):

KNFL 200756Z AUTO 12004KT 10SM CLR 21/08 A2994 RMK AO2 SLP110 T02060083 403500117

TAF (pilot weather forecast)

Forecast is more than 12 hours old.

Closest forecast is Fallon Naval Air Station, 52.5 nm (97.2 km) N. Retrieved 2016/12/07 15:00 UTC (3 years ago):

TAF KNFL 071500Z 0715/0815 VRB06KT 9999 FEW020 SCT070 SCT120 BKN200 620709 521809 522709 QNH3015INS FM071800 VRB06KT 9999 FEW020 SCT060 BKN150 OVC200 620609 521809 522709 QNH3000INS FM080000 VRB06KT 9999 VCSHSN SCT040 BKN100 OVC150 620409 621305 521809 522709 QNH2995INS TEMPO 0800/0806 8000 -SHSN BKN040 OVC100 FM080600 VRB06KT 9999 VCSHSN BKN050 OVC100 620109 621008 521809 522709 QNH2985INS TEMPO 0806/0812 4800 -SN SCT020 BKN030 OVC080